F0657D65 Weather Reports


time (UTC)temp
C
wind
direction
speed
KPH
gust
KPH
rain 1hr
cm
rain 24hr
cm
rain mn
cm
humidity
%
barometer
mb
20260505074525 11 78 0.0 3.2 0.00 0.71 0.00 99 1010.4
20260505073029 11 66 0.0 3.2 0.00 0.71 0.00 99 1010.4
20260505071542 11 42 0.0 4.8 0.00 0.71 0.00 99 1010.4
20260505070020 11 115 0.0 3.2 0.00 0.71 0.00 99 1010.6
20260505064523 10 55 1.6 4.8 0.00 0.71 0.00 99 1010.7
20260505063018 10 74 0.0 1.6 0.00 0.71 0.00 99 1010.8
20260505061518 10 89 0.0 4.8 0.00 0.71 0.00 99 1010.8
20260505060016 10 92 1.6 8.0 0.00 0.71 0.00 99 1010.7
20260505054513 10 107 0.0 4.8 0.00 0.71 0.00 99 1010.9
20260505053019 10 80 0.0 6.4 0.00 0.71 0.00 99 1010.6
20260505051514 10 39 0.0 4.8 0.00 0.71 0.00 99 1010.8
20260505041514 10 76 0.0 4.8 0.00 0.71 0.00 99 1011.1
20260505040007 10 84 0.0 3.2 0.00 0.71 0.00 99 1011.2
20260505034506 10 57 1.6 3.2 0.00 0.71 0.00 99 1011.3
20260505033005 10 76 0.0 0.0 0.00 0.71 0.00 99 1011.4
20260505031502 10 65 0.0 6.4 0.00 0.71 0.00 99 1011.6
20260505030105 10 82 0.0 0.0 0.00 0.71 0.00 98 1011.6
20260505024558 11 84 0.0 0.0 0.00 0.71 0.00 99 1011.7
20260505023107 11 80 0.0 0.0 0.00 0.71 0.00 99 1011.8
20260505021600 11 86 0.0 0.0 0.00 0.71 0.00 99 1011.8
20260505020058 11 73 0.0 0.0 0.00 0.71 0.00 98 1011.8
20260505014554 11 69 1.6 4.8 0.00 0.71 0.00 99 1011.8
20260505013053 11 115 1.6 4.8 0.00 0.71 0.00 99 1011.7
20260505011555 11 61 0.0 0.0 0.00 0.71 0.00 99 1011.8
20260505010055 11 49 0.0 3.2 0.00 0.76 0.00 99 1011.8
20260505004550 11 55 1.6 4.8 0.00 0.76 0.00 99 1011.8
20260505003048 11 33 0.0 3.2 0.00 0.76 0.00 98 1011.9
20260505001547 11 80 0.0 4.8 0.00 0.76 0.00 98 1012.1
20260505000050 11 65 0.0 8.0 0.00 0.76 0.00 98 1012.1
20260504234544 12 130 1.6 4.8 0.00 0.76 0.00 98 1012.1
20260504233044 12 62 1.6 4.8 0.00 0.76 0.00 98 1012.3
20260504231542 12 34 0.0 4.8 0.00 0.76 0.00 98 1012.4
20260504230040 12 92 0.0 1.6 0.00 0.94 0.00 98 1012.5
20260504224540 12 329 0.0 3.2 0.00 0.94 0.00 98 1012.5
20260504223039 12 38 0.0 3.2 0.00 0.94 0.00 98 1012.4
20260504221538 12 35 0.0 3.2 0.00 0.94 0.00 98 1012.5
20260504220035 12 41 0.0 3.2 0.00 1.98 0.94 98 1012.8
20260504214542 12 74 0.0 3.2 0.00 1.98 0.94 98 1012.9
20260504213038 12 42 0.0 1.6 0.00 1.98 0.94 98 1013.1
20260504211533 13 63 0.0 8.0 0.00 1.98 0.94 98 1013.2
20260504210032 13 246 0.0 4.8 0.00 1.98 0.94 98 1013.5
20260504204530 13 333 0.0 4.8 0.00 1.98 0.94 98 1013.6
20260504203032 13 355 0.0 11.3 0.00 1.98 0.94 97 1013.6
20260504201530 13 5 0.0 3.2 0.00 1.98 0.94 97 1013.3
20260504200038 13 319 0.0 4.8 0.00 1.98 0.94 97 1013.2
20260504194529 13 320 0.0 3.2 0.03 1.98 0.94 97 1013.1
20260504193029 13 320 0.0 3.2 0.03 1.98 0.94 97 1013.0
20260504191541 13 342 0.0 0.0 0.05 1.98 0.94 96 1012.8
20260504190027 13 342 0.0 0.0 0.05 1.98 0.94 97 1012.7
20260504184525 13 10 0.0 0.0 0.05 1.96 0.91 97 1012.6
20260504183037 13 10 0.0 0.0 0.05 1.96 0.91 97 1012.8
20260504181527 13 10 0.0 0.0 0.05 1.93 0.89 97 1012.9
20260504180025 13 10 0.0 0.0 0.05 1.96 0.89 97 1012.7
20260504174524 13 10 0.0 0.0 0.05 1.93 0.89 97 1012.5
20260504173028 13 10 0.0 0.0 0.05 1.93 0.86 97 1012.6
20260504171523 13 10 0.0 0.0 0.08 1.93 0.86 96 1012.7
20260504081544 12 78 0.0 0.0 0.00 1.37 0.20 99 1014.2